Regional Weather Roundup
Issued by NWS Goodland, KS

Home | Current Version | Previous Version | Graphics & Text | Print | Product List | Glossary On
Versions: 1 2 3 4 5 6 7 8 9 10 11 12 13 14 15 16 17 18 19 20 21 22 23 24 25 26 27 28 29 30 31 32 33 34 35 36 37 38 39 40 41 42 43 44 45 46 47 48 49 50
654
ASUS43 KGLD 271259
RWRGLD

GOODLAND FORECAST AREA HOURLY WEATHER ROUNDUP
NATIONAL WEATHER SERVICE GOODLAND KS
700 AM MDT TUE JUN 27 2017

...OFFICIAL OBSERVATIONS...

CITY           SKY/WX    TMP DP  RH WIND       PRES   REMARKS
GOODLAND KS    FOG       59  59 100 SE13      30.00F VSB 1/4
HILL CITY KS   CLOUDY    63  62  97 SE8       30.01F FOG
IMPERIAL NEB   CLOUDY    61  57  87 S14       30.01S
MCCOOK NEB     CLOUDY    61  60  97 SE12      30.01F
AKRON CO       CLOUDY    61  57  87 SE15      29.99F
BURLINGTON CO  FOG       59  59 100 S12       30.03S VSB 1/4
LIMON CO       FOG       55  55 100 SE7       30.06F VSB 1/4
$$

...UNOFFICIAL OBSERVATIONS...

CITY           SKY/WX    TMP DP  RH WIND       PRES   REMARKS
LENORA KS        N/A     60  32  34 MISG        N/A
NORTON KS      CLOUDY    59  55  88 E13       30.01
SHARON SPRINGS   N/A     59  58  95 SE5G12      N/A
TRENTON NEB      N/A     60  32  34 S8          N/A
KIT CARSON CO    N/A     58  55  91 MISG        N/A
YUMA CO        CLOUDY    59  54  82 SE16      29.99F
$$




USA.gov is the U.S. government's official web portal to all federal, state and local government web resources and services.